Joliet, IL

7:11 PM CDT on May 22, 2018 (GMT -0500)
Joliet Regional

Weather History for KJOT - November, 2011

Change the Weather History Date:

Thursday, November 10, 2011

  Actual Average (KARR) Record (KARR)
Temperature  
Mean Temperature 36 °F -  
Max Temperature 41 °F 47 °F 71 °F (2010)
Min Temperature 32 °F 29 °F 15 °F (2017)
Degree Days  
Heating Degree Days 28    
Moisture  
Dew Point 29 °F    
Average Humidity 80    
Maximum Humidity 87    
Minimum Humidity 61    
Precipitation  
Precipitation 0.01 in - - ()
Sea Level Pressure  
Sea Level Pressure 29.99 in    
Wind  
Wind Speed 8 mph (WSW)    
Max Wind Speed 16 mph    
Max Gust Speed 24 mph    
Visibility 10 miles    
Events Rain , Snow    
Averages and records for this station are not official NWS values.
T = Trace of Precipitation, MM = Missing Value Source: NWS Daily Summary

Daily Weather History Graph

Daily Weather History Graph

Search for Another Location

Airport or City:

Astronomy

Nov. 10, 2011 Rise Set
Actual Time 6:35 AM CST 4:37 PM CST
Civil Twilight 6:05 AM CST 5:07 PM CST
Nautical Twilight 5:32 AM CST 5:40 PM CST
Astronomical Twilight 4:59 AM CST 6:12 PM CST
Moon 4:24 PM CST (11/10) 6:27 AM CST (11/10)
Length of Visible Light 11h 01m
Length of Day
10h 02m
Full, 100% of the Moon is Illuminated
Nov 10
Full
Nov 10
Full
Nov 18
Last Quarter
Nov 25
New
Dec 2
First Quarter

Hourly Weather History & Observations

Time (CST) Temp. Windchill Dew Point Humidity Pressure Visibility Wind Dir Wind Speed Gust Speed Precip Events Conditions
12:15 AM 35.6 °F 29.9 °F 30.2 °F 81% 29.98 in 10.0 mi WSW 6.9 mph - N/A   Clear
12:35 AM 35.6 °F 29.2 °F 30.2 °F 81% 29.98 in 10.0 mi WSW 8.1 mph - N/A   Clear
12:55 AM 35.6 °F 30.7 °F 30.2 °F 81% 29.98 in 10.0 mi SW 5.8 mph - N/A   Clear
1:15 AM 35.6 °F 29.9 °F 30.2 °F 81% 29.99 in 10.0 mi WSW 6.9 mph - N/A   Clear
1:35 AM 35.6 °F 30.7 °F 30.2 °F 81% 29.99 in 10.0 mi SW 5.8 mph - N/A   Clear
1:55 AM 33.8 °F 28.6 °F 28.4 °F 81% 29.99 in 10.0 mi WSW 5.8 mph - N/A   Clear
2:15 AM 33.8 °F 27.7 °F 28.4 °F 81% 29.98 in 10.0 mi SW 6.9 mph - N/A   Clear
2:35 AM 33.8 °F 27.0 °F 28.4 °F 81% 29.98 in 10.0 mi SW 8.1 mph - N/A   Clear
2:55 AM 33.8 °F 27.0 °F 28.4 °F 81% 29.98 in 10.0 mi SW 8.1 mph - N/A   Clear
3:15 AM 32.0 °F 25.6 °F 28.4 °F 87% 29.98 in 10.0 mi SW 6.9 mph - N/A   Clear
3:35 AM 32.0 °F 25.6 °F 28.4 °F 87% 29.98 in 10.0 mi SW 6.9 mph - N/A   Clear
3:55 AM 32.0 °F 25.6 °F 28.4 °F 87% 29.97 in 10.0 mi SW 6.9 mph - N/A   Clear
4:15 AM 32.0 °F 24.8 °F 28.4 °F 87% 29.97 in 10.0 mi SW 8.1 mph - N/A   Clear
4:35 AM 32.0 °F 24.2 °F 28.4 °F 87% 29.97 in 10.0 mi SW 9.2 mph - N/A   Clear
4:55 AM 32.0 °F 26.4 °F 28.4 °F 87% 29.98 in 10.0 mi SW 5.8 mph - N/A   Clear
5:15 AM 32.0 °F 24.8 °F 28.4 °F 87% 29.98 in 10.0 mi SW 8.1 mph - N/A   Clear
5:35 AM 32.0 °F 26.4 °F 28.4 °F 87% 29.98 in 10.0 mi SW 5.8 mph - N/A   Clear
5:55 AM 32.0 °F 25.6 °F 28.4 °F 87% 29.98 in 10.0 mi SW 6.9 mph - N/A   Clear
6:15 AM 32.0 °F 27.5 °F 28.4 °F 87% 29.98 in 10.0 mi SW 4.6 mph - N/A   Clear
6:35 AM 32.0 °F 25.6 °F 28.4 °F 87% 29.98 in 10.0 mi SW 6.9 mph - N/A   Mostly Cloudy
6:55 AM 32.0 °F 24.8 °F 28.4 °F 87% 29.98 in 10.0 mi SW 8.1 mph - N/A   Overcast
7:15 AM 33.8 °F 27.0 °F 28.4 °F 81% 29.99 in 10.0 mi SW 8.1 mph - N/A   Overcast
7:35 AM 33.8 °F 27.0 °F 28.4 °F 81% 30.00 in 10.0 mi WSW 8.1 mph - N/A   Overcast
7:55 AM 33.8 °F 27.7 °F 28.4 °F 81% 30.00 in 10.0 mi WSW 6.9 mph - N/A   Mostly Cloudy
8:15 AM 35.6 °F 27.5 °F 28.4 °F 75% 30.00 in 10.0 mi WSW 11.5 mph - N/A   Scattered Clouds
8:35 AM 35.6 °F 28.6 °F 28.4 °F 75% 30.00 in 10.0 mi WSW 9.2 mph 16.1 mph N/A   Scattered Clouds
8:55 AM 35.6 °F 27.5 °F 28.4 °F 75% 30.01 in 10.0 mi West 11.5 mph - N/A   Overcast
9:15 AM 35.6 °F 28.0 °F 28.4 °F 75% 30.00 in 10.0 mi WSW 10.4 mph 16.1 mph N/A   Overcast
9:35 AM 35.6 °F 28.6 °F 28.4 °F 75% 30.00 in 10.0 mi WSW 9.2 mph 16.1 mph N/A   Overcast
9:55 AM 35.6 °F 27.5 °F 28.4 °F 75% 30.00 in 10.0 mi WSW 11.5 mph 18.4 mph N/A   Overcast
10:15 AM 35.6 °F 28.6 °F 28.4 °F 75% 30.01 in 10.0 mi WSW 9.2 mph 19.6 mph N/A   Overcast
10:35 AM 37.4 °F 29.3 °F 30.2 °F 75% 30.00 in 10.0 mi WSW 12.7 mph 20.7 mph N/A   Overcast
10:55 AM 37.4 °F 28.2 °F 30.2 °F 75% 30.00 in 10.0 mi WSW 16.1 mph 19.6 mph N/A   Overcast
11:15 AM 37.4 °F 30.3 °F 30.2 °F 75% 30.00 in 10.0 mi West 10.4 mph 19.6 mph N/A   Overcast
11:35 AM 37.4 °F 28.5 °F 30.2 °F 75% 30.00 in 10.0 mi WSW 15.0 mph 19.6 mph N/A   Overcast
11:55 AM 37.4 °F 28.9 °F 30.2 °F 75% 29.99 in 10.0 mi West 13.8 mph 20.7 mph N/A   Mostly Cloudy
12:15 PM 37.4 °F 30.8 °F 30.2 °F 75% 29.99 in 10.0 mi West 9.2 mph 21.9 mph N/A   Mostly Cloudy
12:35 PM 39.2 °F 31.6 °F 28.4 °F 65% 29.98 in 10.0 mi West 12.7 mph 24.2 mph N/A   Mostly Cloudy
12:55 PM 41.0 °F 33.1 °F 28.4 °F 61% 29.98 in 10.0 mi WSW 15.0 mph 21.9 mph N/A   Mostly Cloudy
1:15 PM 41.0 °F 33.5 °F 30.2 °F 65% 29.98 in 10.0 mi WSW 13.8 mph 20.7 mph N/A   Overcast
1:35 PM 39.2 °F 30.5 °F 28.4 °F 65% 29.98 in 10.0 mi West 16.1 mph 23.0 mph N/A   Overcast
1:55 PM 39.2 °F 33.6 °F 28.4 °F 65% 29.97 in 10.0 mi WSW 8.1 mph 18.4 mph N/A   Overcast
2:15 PM 37.4 °F 32.1 °F 30.2 °F 75% 29.98 in 10.0 mi WSW 6.9 mph 19.6 mph N/A   Overcast
2:35 PM 37.4 °F 28.2 °F 28.4 °F 70% 29.98 in 10.0 mi WSW 16.1 mph 23.0 mph N/A   Overcast
2:55 PM 35.6 °F 30.7 °F 30.2 °F 81% 30.00 in 3.0 mi West 5.8 mph - N/A Rain Light Rain
3:15 PM 35.6 °F 29.9 °F 32.0 °F 87% 30.00 in 4.0 mi West 6.9 mph - 0.01 in Snow Light Snow
3:35 PM 35.6 °F 29.9 °F 32.0 °F 87% 30.00 in 10.0 mi WSW 6.9 mph - 0.01 in   Light Drizzle
3:55 PM 35.6 °F 30.7 °F 32.0 °F 87% 30.01 in 10.0 mi WSW 5.8 mph - 0.01 in   Mostly Cloudy
4:15 PM 35.6 °F 27.5 °F 30.2 °F 81% 30.02 in 10.0 mi West 11.5 mph 16.1 mph N/A   Scattered Clouds
4:35 PM 35.6 °F 28.6 °F 30.2 °F 81% 30.02 in 10.0 mi West 9.2 mph - N/A   Scattered Clouds
4:55 PM 35.6 °F 29.9 °F 30.2 °F 81% 30.02 in 10.0 mi West 6.9 mph - N/A   Clear
5:15 PM 35.6 °F 29.9 °F 30.2 °F 81% 30.02 in 10.0 mi WSW 6.9 mph - N/A   Clear
5:35 PM 33.8 °F 28.6 °F 30.2 °F 87% 30.03 in 10.0 mi WSW 5.8 mph - N/A   Clear
5:55 PM 33.8 °F 28.6 °F 30.2 °F 87% 30.03 in 10.0 mi WSW 5.8 mph - N/A   Clear
6:15 PM 33.8 °F 27.7 °F 30.2 °F 87% 30.03 in 10.0 mi WSW 6.9 mph - N/A   Clear
6:35 PM 33.8 °F 28.6 °F 28.4 °F 81% 30.04 in 10.0 mi WSW 5.8 mph - N/A   Clear
6:55 PM 32.0 °F 27.5 °F 28.4 °F 87% 30.04 in 10.0 mi WSW 4.6 mph - N/A   Clear
7:15 PM 32.0 °F 28.7 °F 28.4 °F 87% 30.04 in 10.0 mi WSW 3.5 mph - N/A   Scattered Clouds
7:35 PM 32.0 °F 28.7 °F 28.4 °F 87% 30.04 in 10.0 mi SW 3.5 mph - N/A   Scattered Clouds
7:55 PM 32.0 °F 26.4 °F 30.2 °F 93% 30.04 in 10.0 mi WSW 5.8 mph - N/A   Clear
8:15 PM 32.0 °F 26.4 °F 28.4 °F 87% 30.04 in 10.0 mi WSW 5.8 mph - N/A   Clear
8:35 PM 32.0 °F 26.4 °F 28.4 °F 87% 30.05 in 10.0 mi WSW 5.8 mph - N/A   Clear
8:55 PM 32.0 °F 24.8 °F 28.4 °F 87% 30.05 in 10.0 mi WSW 8.1 mph - N/A   Clear
9:15 PM 32.0 °F 25.6 °F 28.4 °F 87% 30.05 in 10.0 mi WSW 6.9 mph - N/A   Clear
9:35 PM 32.0 °F 27.5 °F 28.4 °F 87% 30.05 in 10.0 mi WSW 4.6 mph - N/A   Clear
9:55 PM 32.0 °F 27.5 °F 28.4 °F 87% 30.05 in 10.0 mi WSW 4.6 mph - N/A   Clear
10:15 PM 32.0 °F 27.5 °F 28.4 °F 87% 30.04 in 10.0 mi WSW 4.6 mph - N/A   Clear
10:35 PM 32.0 °F 27.5 °F 28.4 °F 87% 30.04 in 10.0 mi WSW 4.6 mph - N/A   Clear
10:55 PM 32.0 °F 26.4 °F 28.4 °F 87% 30.04 in 10.0 mi WSW 5.8 mph - N/A   Clear
11:15 PM 32.0 °F 27.5 °F 28.4 °F 87% 30.04 in 10.0 mi SW 4.6 mph - N/A   Clear
11:35 PM 32.0 °F 27.5 °F 28.4 °F 87% 30.04 in 10.0 mi SW 4.6 mph - N/A   Clear
11:55 PM 32.0 °F 27.5 °F 26.6 °F 80% 30.04 in 10.0 mi WSW 4.6 mph - N/A   Clear